Location: Duffs
(47.4500°N, 53.1167°W)
Time: 13:43:56
(UTC+00:00)

Envisat - Visible Passes

Search period start: 20 May 2022 00:00
Search period end: 30 May 2022 00:00
Orbit: 764 x 765 km, 98.2° (Epoch: 19 May)

Date Brightness Start Highest point End Pass type
(mag) Time Alt. Az. Time Alt. Az. Time Alt. Az.
20 May 5.7 06:55:29 10° NE 06:58:34 16° E 07:01:38 10° SE visible
23 May 5.8 06:44:30 10° ENE 06:46:40 13° E 06:48:47 10° ESE visible
28 May 5.6 06:57:01 10° NE 07:00:16 17° E 07:03:30 10° SE visible
